CZ-6A DEB, 54992

Orbit data source: Space-Track

CZ-6A DEB, 54992 is space debris in SSO originally from a launch on Fri, 11 Nov 2022 UTC launched from the Taiyaun Space Center, China (TSC). Debris objects in space refer to the collection of defunct objects orbiting the Earth. Examples of debris include non-operational satellites, rocket bodies, and fragments generated from explosions, collisions, or faulty payload assembly.

Loading next visibility...
Identifier
54992, 2022-151UH
Orbit
SSO
Country
Flag of CNCN / PRC
Related business
Manufacturer
SAST
Mission
Spacecraft
Bus & Motor
Unknown
Mass
Unknown
Launch date (UTC)
2022-11-11 (4 years ago)
Launch vehicle
Unknown
Launch site
Taiyaun Space Center, China (TSC)
Object type
Payload
Rocket body
Debris
Shape & HBR
Unknown shape, 0.1 m
Radar Cross Section
Medium (>0.1 m² and <1 m²)

Expand to show TLE details & history
Last TLE update: 3 days ago

TLE from 3 days ago
0 CZ-6A DEB
1 54992U 22151UH  26170.50630805  .00002225  00000-0  95139-3 0  9994
2 54992  98.7819 186.4243 0022939 236.8397 123.0583 14.25838635185319
Epoch: 2026-06-19T12:09Z
TLE epoch observation values (Epoch: 2026-06-19T12:09:05.015Z)
Latitude
0.00008°
Longitude
96.41909°
Altitude
817.612 km
Speed
7.44 km/s
True Right ascension
12h 25m 41s
True Declination
0° 00' 00"
Sunlit
Object was in daylight at epoch
Visualization orbit readout
Latitude
Unknown
Longitude
Unknown
Altitude
Unknown
Speed
Unknown
Apparent Right ascension
Unknown
Apparent Declination
Unknown
Sunlit
N/A
Visualization observer readout
Local Sidereal Time
21:24:54
Azimuth
Unknown
Elevation
Unknown
Doppler factor
Unknown
Orbital elements
Apogee altitude
819.301 km
Perigee altitude
786.356 km
Semi-major axis
7,180.966 km
Eccentricity
0.00229
Inclination
98.7819°
RAAN
186.4243°
Arg. of periapsis
236.8397°
True anomaly
123.27826°
Mean anomaly
123.0583°
Eccentric anomaly
123.16832°
Mean motion
3.56672 °/min
Orbital period
100.93 mins
BSTAR
0.00095139
Loading maneuver chart data...
Computing Atmospheric mass density...
Loading historical data...
Loading historical data...
Loading historical data...
Loading historical data...
Loading historical data...
Loading historical data...
Loading historical data...

Documentation

Showing up to 5 results
|